Tracking 27111 objects as of 28-Mar-2023
HD Live streaming from Space Station
objects crossing your sky now

STARLINK-5065

Track STARLINK-5065 now!
10-day predictions
STARLINK-5065 is classified as:


NORAD ID: 55641
Int'l Code: 2023-021P
Perigee: 364.5 km
Apogee: 367.9 km
Inclination: 70.0 °
Period: 91.7 minutes
Semi major axis: 6737 km
RCS: Unknown
Launch date: February 17, 2023
Source: United States (US)
Launch site: AIR FORCE WESTERN TEST RANGE (AFWTR)
Your satellite tracking list
Your tracking list is empty




NASA's NSSDC Master Catalog

Two Line Element Set (TLE):
1 55641U 23021P   23087.21061245  .00000097  00000-0  25661-5 0  9991
2 55641  70.0026  41.8621 0002501 246.2319 113.8615 15.69935292  6579
Source of the keplerian elements: AFSPC